CZ-2C R/B (39364 NORAD) Tracking and Keplerian Element Data

This shows tracking and keplerian element data for the satellite.

Feedback or suggestion? Click here.




ElementValue
Catalog39364
NameCZ-2C R/B
Epoch Orbit56863
Epoch Day12.71001693
Epoch Year2024
RAAN61.177
Inclination97.0713
Eccentricity0.0024678
Argument of Perigee47.3268
Mean Anonmoly313.0063
Mean Motion15.58263867
Decay Rate0.00055739
L11 39364U 13059B 24012.71001693 .00055739 00000+0 72416-3 0 9990
L22 39364 97.0713 61.1770 0024678 47.3268 313.0063 15.58263867568638



Live tracking and technical data element details for CZ-2C R/B (NORAD 39364). CZ-2C R/B can be tracked NOW for your location showing map with azimuth and elevation plus other details from your city location.







IsCatalogInMostPopularTable: catalog: 39364, numindb: 60
Update: records affected: 1



GetName: 39364 CZ-2C R/B

Hit Count: updated at: Sun, 14 Apr 2024 23:28:55 GMT